Station FRXM3 - 8447412 - Fall River Visibility, MA Image indicating link to RSS feed of recent meteorological observations for station FRXM3


Conditions at FRXM3 as of
(6:18 pm EDT)
2218 GMT on 06/21/2024:
     

Click on the graph icon in the table below to see a time series plot of the last five days of that observation.

5-day plot - Air Temperature Air Temperature (ATMP): 78.4 °F
5-day plot - Dew Point Dew Point (DEWP): 69.1 °F
5-day plot - Visibility Visibility (VIS): 5.9 nmi
5-day plot - Heat Index Heat Index (HEAT): 80.8 °F
NOS Water Level Observation Network Water Level
Previous observations
TIME
(EDT)
5-day plot - Wind Direction
WDIR
 
5-day plot - Wind Speed
WSPD
kts
5-day plot - Wind Gust
GST
kts
5-day plot - Wave Height
WVHT
ft
5-day plot - Dominant Wave Period
DPD
sec
5-day plot - Average Wave Period
APD
sec
5-day plot - Mean Wave Direction
MWD
 
5-day plot - Atmospheric Pressure
PRES
in
5-day plot - Pressure Tendency
PTDY
in
5-day plot - Air Temperature
ATMP
°F
5-day plot - Water Temperature
WTMP
°F
5-day plot - Dew Point
DEWP
°F
5-day plot - Salinity
SAL
psu
5-day plot - Visibility
VIS
nmi
5-day plot - Tide (above MLLW)
TIDE
ft
2024-06-21 06:12 pm--------- 78.3- 69.6- 5.9-
2024-06-21 06:06 pm--------- 77.4- 71.2- 5.9-
2024-06-21 06:00 pm--------- 79.5- 70.3- 5.9-
2024-06-21 05:54 pm--------- 79.5- 69.8- 5.9-
2024-06-21 05:48 pm--------- 79.2- 70.2- 5.9-
2024-06-21 05:42 pm--------- 78.8- 69.8- 5.9-
2024-06-21 05:36 pm--------- 78.3- 70.5- 5.9-
2024-06-21 05:30 pm--------- 78.8- 71.1- 5.9-
2024-06-21 05:24 pm--------- 78.1- 72.0- 5.9-
2024-06-21 05:18 pm--------- 76.6- 72.5- 5.9-
2024-06-21 05:12 pm--------- 77.0- 72.9- 5.9-
2024-06-21 05:06 pm--------- 77.2- 72.7- 5.9-
2024-06-21 05:00 pm--------- 78.3- 72.3- 5.9-
2024-06-21 04:54 pm--------- 81.3- 71.6- 5.9-
2024-06-21 04:48 pm--------- 80.6- 72.5- 5.9-
2024-06-21 04:42 pm--------- 80.6- 72.1- 5.9-
2024-06-21 04:36 pm--------- 80.6- 72.1- 5.9-
2024-06-21 04:30 pm--------- 81.3- 72.1- 5.9-
2024-06-21 04:24 pm--------- 81.7- 72.3- 5.9-
2024-06-21 04:18 pm--------- 81.9- 71.4- 5.9-
2024-06-21 04:12 pm--------- 81.7- 71.1- 5.9-
2024-06-21 04:06 pm--------- 81.9- 71.1- 5.9-
2024-06-21 04:00 pm--------- 81.5- 71.1- 5.9-
2024-06-21 03:54 pm--------- 82.0- 71.1- 5.9-
2024-06-21 03:48 pm--------- 82.2- 71.1- 5.9-
2024-06-21 03:42 pm--------- 82.2- 71.1- 5.9-
2024-06-21 03:36 pm--------- 83.7- 71.4- 5.9-
2024-06-21 03:30 pm--------- 84.0- 71.8- 5.9-
2024-06-21 03:24 pm--------- 82.9- 71.6- 5.9-
2024-06-21 03:18 pm--------- 82.9- 71.6- 5.9-
2024-06-21 03:12 pm--------- 82.6- 71.8- 5.9-
2024-06-21 03:06 pm--------- 81.7- 72.3- 5.9-
2024-06-21 03:00 pm--------- 83.1- 72.3- 5.9-
2024-06-21 02:54 pm--------- 83.1- 72.3- 5.9-
2024-06-21 02:48 pm--------- 82.4- 72.1- 5.9-
2024-06-21 02:42 pm--------- 81.7- 72.9- 5.9-
2024-06-21 02:36 pm--------- 81.9- 73.4- 5.9-
2024-06-21 02:30 pm--------- 82.4- 72.9- 5.9-
2024-06-21 02:24 pm--------- 85.1- 72.9- 5.9-
2024-06-21 02:18 pm--------- 85.5- 72.9- 5.9-
2024-06-21 02:12 pm--------- 85.5- 73.2- 5.9-
2024-06-21 02:06 pm--------- 84.2- 72.9- 5.9-
2024-06-21 02:00 pm--------- 83.8- 72.9- 5.9-
2024-06-21 01:54 pm--------- 83.8- 72.7- 5.9-
2024-06-21 01:48 pm--------- 84.2- 72.7- 5.9-
2024-06-21 01:42 pm--------- 83.8- 73.4- 5.9-
2024-06-21 01:36 pm--------- 84.4- 73.2- 5.9-
2024-06-21 01:30 pm--------- 83.8- 72.9- 5.9-
2024-06-21 01:24 pm--------- 83.8- 73.2- 5.9-
2024-06-21 01:18 pm--------- 84.0- 73.0- 5.9-
2024-06-21 01:12 pm--------- 84.4- 72.7- 5.9-
2024-06-21 01:06 pm--------- 83.8- 73.2- 5.9-
2024-06-21 01:00 pm--------- 84.7- 72.9- 5.9-
2024-06-21 12:54 pm--------- 86.0- 73.4- 5.9-
2024-06-21 12:48 pm--------- 86.2- 72.7- 5.9-
2024-06-21 12:42 pm--------- 85.8- 72.3- 5.9-
2024-06-21 12:36 pm--------- 84.9- 71.4- 5.9-
2024-06-21 12:30 pm--------- 85.6- 71.4- 5.9-
2024-06-21 12:24 pm--------- 85.6- 71.8- 5.9-
2024-06-21 12:18 pm--------- 83.5- 72.5- 5.9-
2024-06-21 12:12 pm--------- 82.4- 72.0- 5.9-
2024-06-21 12:06 pm--------- 81.9- 72.1- 5.9-
2024-06-21 12:00 pm--------- 81.0- 72.3- 5.9-
2024-06-21 11:54 am--------- 81.0- 72.7- 5.9-
2024-06-21 11:48 am--------- 81.0- 72.7- 5.9-
2024-06-21 11:42 am--------- 81.7- 72.9- 5.9-
2024-06-21 11:36 am--------- 81.3- 72.1- 5.9-
2024-06-21 11:30 am--------- 80.8- 72.3- 5.9-
2024-06-21 11:24 am--------- 80.4- 72.1- 5.9-
2024-06-21 11:18 am--------- 80.2- 72.1- 5.9-
2024-06-21 11:12 am--------- 80.4- 71.4- 5.9-
2024-06-21 11:06 am--------- 79.0- 71.8- 5.9-
2024-06-21 11:00 am--------- 79.3- 72.0- 5.9-
2024-06-21 10:54 am--------- 79.0- 71.6- 5.9-
2024-06-21 10:48 am--------- 79.2- 71.4- 5.9-
2024-06-21 10:42 am--------- 79.9- 71.1- 5.9-
2024-06-21 10:36 am--------- 79.7- 70.9- 5.9-
2024-06-21 10:30 am--------- 80.1- 70.5- 5.9-
2024-06-21 10:24 am--------- 79.9- 70.3- 5.9-
2024-06-21 10:18 am--------- 79.2- 69.8- 5.9-
2024-06-21 10:12 am--------- 78.1- 69.6- 5.9-
2024-06-21 10:06 am--------- 78.3- 69.3- 5.9-
2024-06-21 10:00 am--------- 77.4- 69.3- 5.9-
2024-06-21 09:54 am--------- 76.8- 70.0- 5.9-
2024-06-21 09:48 am--------- 76.1- 69.4- 5.9-
2024-06-21 09:42 am--------- 76.3- 69.6- 5.9-
2024-06-21 09:36 am--------- 76.5- 69.3- 5.9-
2024-06-21 09:30 am--------- 76.1- 68.9- 5.9-
2024-06-21 09:24 am--------- 75.6- 68.9- 5.9-
2024-06-21 09:18 am--------- 75.6- 69.1- 5.9-
2024-06-21 09:12 am--------- 75.4- 69.3- 5.9-
2024-06-21 09:06 am--------- 75.2- 68.9- 5.9-
2024-06-21 09:00 am--------- 75.0- 68.5- 5.9-
2024-06-21 08:54 am--------- 74.7- 68.7- 5.9-
2024-06-21 08:48 am--------- 74.5- 68.5- 5.9-
2024-06-21 08:42 am--------- 74.7- 68.5- 5.9-
2024-06-21 08:36 am--------- 74.7- 68.4- 5.9-
2024-06-21 08:30 am--------- 74.8- 68.5- 5.9-
2024-06-21 08:24 am--------- 74.8- 68.4- 5.9-
2024-06-21 08:18 am--------- 74.8- 68.2- 5.9-
2024-06-21 08:12 am--------- 74.7- 68.0- 5.9-
2024-06-21 08:06 am--------- 74.5- 68.2- 5.9-
2024-06-21 08:00 am--------- 74.1- 68.0- 5.9-
2024-06-21 07:54 am--------- 73.8- 67.8- 5.9-
2024-06-21 07:48 am--------- 73.6- 68.0- 5.9-
2024-06-21 07:42 am--------- 73.2- 67.8- 5.9-
2024-06-21 07:36 am--------- 73.4- 68.0- 5.9-
2024-06-21 07:30 am--------- 73.0- 67.6- 5.9-
2024-06-21 07:24 am--------- 73.4- 68.0- 5.9-
2024-06-21 07:18 am--------- 73.2- 67.5- 5.9-
2024-06-21 07:12 am--------- 73.4- 67.8- 5.9-
2024-06-21 07:06 am--------- 73.0- 67.3- 5.9-
2024-06-21 07:00 am--------- 73.2- 67.6- 5.9-
2024-06-21 06:54 am--------- 72.5- 67.5- 5.9-
2024-06-21 06:48 am--------- 72.5- 67.6- 5.9-
2024-06-21 06:42 am--------- 72.3- 67.5- 5.9-
2024-06-21 06:36 am--------- 72.1- 67.3- 5.9-
2024-06-21 06:30 am--------- 72.1- 67.1- 5.9-
2024-06-21 06:24 am--------- 72.3- 67.3- 5.9-
2024-06-21 06:18 am--------- 72.1- 67.1- 5.9-
2024-06-21 06:12 am--------- 72.0- 67.1- 5.9-
2024-06-21 06:06 am--------- 71.6- 66.9- 5.9-
2024-06-21 06:00 am--------- 71.4- 66.7- 5.9-
2024-06-21 05:54 am--------- 71.4- 66.7- 5.9-
2024-06-21 05:48 am--------- 71.6- 66.7- 5.9-
2024-06-21 05:42 am--------- 71.6- 66.6- 5.9-
2024-06-21 05:36 am--------- 71.4- 66.4- 5.9-
2024-06-21 05:30 am--------- 71.4- 66.4- 5.9-
2024-06-21 05:24 am--------- 71.4- 66.4- 5.9-
2024-06-21 05:18 am--------- 71.4- 66.4- 5.9-
2024-06-21 05:12 am--------- 71.4- 66.4- 5.9-
2024-06-21 05:06 am--------- 71.4- 66.4- 5.9-
2024-06-21 05:00 am--------- 71.6- 66.4- 5.9-
2024-06-21 04:54 am--------- 71.6- 66.4- 5.9-
2024-06-21 04:48 am--------- 71.6- 66.4- 5.9-
2024-06-21 04:42 am--------- 71.6- 66.2- 5.9-
2024-06-21 04:36 am--------- 72.0- 66.4- 5.9-
2024-06-21 04:30 am--------- 72.1- 66.4- 5.9-
2024-06-21 04:24 am--------- 72.3- 66.2- 5.9-
2024-06-21 04:18 am--------- 72.5- 66.4- 5.9-
2024-06-21 04:12 am--------- 72.5- 66.4- 5.9-
2024-06-21 04:06 am--------- 72.7- 66.4- 5.9-
2024-06-21 04:00 am--------- 72.9- 66.6- 5.9-
2024-06-21 03:54 am--------- 73.0- 66.7- 5.9-
2024-06-21 03:48 am--------- 73.0- 66.7- 5.9-
2024-06-21 03:42 am--------- 73.0- 66.7- 5.9-
2024-06-21 03:36 am--------- 73.0- 66.9- 5.9-
2024-06-21 03:30 am--------- 72.9- 66.9- 5.9-
2024-06-21 03:24 am--------- 72.9- 66.9- 5.9-
2024-06-21 03:18 am--------- 72.9- 66.9- 5.9-
2024-06-21 03:12 am--------- 72.9- 67.1- 5.9-
2024-06-21 03:06 am--------- 72.9- 67.1- 5.9-
2024-06-21 03:00 am--------- 72.9- 67.1- 5.9-
2024-06-21 02:54 am--------- 72.9- 67.1- 5.9-
2024-06-21 02:48 am--------- 72.9- 67.1- 5.9-
2024-06-21 02:42 am--------- 73.0- 67.3- 5.9-
2024-06-21 02:36 am--------- 72.9- 67.3- 5.9-
2024-06-21 02:30 am--------- 72.9- 67.3- 5.9-
2024-06-21 02:24 am--------- 72.9- 67.3- 5.9-
2024-06-21 02:18 am--------- 73.0- 67.5- 5.9-
2024-06-21 02:12 am--------- 73.0- 67.3- 5.9-
2024-06-21 02:06 am--------- 73.2- 67.5- 5.9-
2024-06-21 02:00 am--------- 73.2- 67.5- 5.9-
2024-06-21 01:54 am--------- 73.4- 67.6- 5.9-
2024-06-21 01:48 am--------- 73.4- 67.8- 5.9-
2024-06-21 01:42 am--------- 73.4- 67.8- 5.9-
2024-06-21 01:36 am--------- 73.4- 67.8- 5.9-
2024-06-21 01:30 am--------- 73.4- 68.0- 5.9-
2024-06-21 01:24 am--------- 73.4- 68.0- 5.9-
2024-06-21 01:18 am--------- 73.4- 68.0- 5.9-
2024-06-21 01:12 am--------- 73.4- 68.0- 5.9-
2024-06-21 01:06 am--------- 73.4- 68.0- 5.9-
2024-06-21 01:00 am--------- 73.2- 67.8- 5.9-
2024-06-21 12:54 am--------- 73.2- 68.0- 5.9-
2024-06-21 12:48 am--------- 73.4- 68.0- 5.9-
2024-06-21 12:42 am--------- 73.2- 68.0- 5.9-
2024-06-21 12:36 am--------- 73.0- 68.2- 5.9-
2024-06-21 12:30 am--------- 73.4- 68.5- 5.9-
2024-06-21 12:24 am--------- 73.9- 68.5- 5.9-
2024-06-21 12:18 am--------- 73.9- 68.7- 5.9-
2024-06-21 12:12 am--------- 73.8- 68.9- 5.9-
2024-06-21 12:06 am--------- 73.9- 69.4- 5.9-
2024-06-21 12:00 am--------- 74.8- 70.0- 5.9-
2024-06-20 11:54 pm--------- 75.4- 68.9- 5.9-
2024-06-20 11:48 pm--------- 75.9- 68.5- 5.9-
2024-06-20 11:42 pm--------- 76.3- 69.1- 5.9-
2024-06-20 11:36 pm--------- 76.5- 67.3- 5.9-
2024-06-20 11:30 pm--------- 75.9- 68.0- 5.9-
2024-06-20 11:24 pm--------- 76.8- 68.2- 5.9-
2024-06-20 11:18 pm--------- 77.4- 67.6- 5.9-
2024-06-20 11:12 pm--------- 77.2- 68.2- 5.9-
2024-06-20 11:06 pm--------- 77.4- 68.4- 5.9-
2024-06-20 11:00 pm--------- 77.4- 68.7- 5.9-
2024-06-20 10:54 pm--------- 76.6- 69.1- 5.9-
2024-06-20 10:48 pm--------- 75.9- 69.3- 5.9-
2024-06-20 10:42 pm--------- 75.4- 68.9- 5.9-
2024-06-20 10:36 pm--------- 75.4- 69.1- 5.9-
2024-06-20 10:30 pm--------- 75.4- 69.1- 5.9-
2024-06-20 10:24 pm--------- 75.4- 69.1- 5.9-
2024-06-20 10:18 pm--------- 75.0- 69.3- 5.9-
2024-06-20 10:12 pm--------- 74.7- 69.6- 5.9-
2024-06-20 10:06 pm--------- 74.5- 69.8- 5.9-
2024-06-20 10:00 pm--------- 75.2- 69.8- 5.9-
2024-06-20 09:54 pm--------- 75.9- 69.3- 5.9-
2024-06-20 09:48 pm--------- 76.8- 68.5- 5.9-
2024-06-20 09:42 pm--------- 76.8- 68.4- 5.9-
2024-06-20 09:36 pm--------- 77.0- 68.4- 5.9-
2024-06-20 09:30 pm--------- 77.2- 68.4- 5.9-
2024-06-20 09:24 pm--------- 77.2- 68.4- 5.9-
2024-06-20 09:18 pm--------- 77.2- 68.5- 5.9-
2024-06-20 09:12 pm--------- 77.5- 68.7- 5.9-
2024-06-20 09:06 pm--------- 77.7- 68.7- 5.9-
2024-06-20 09:00 pm--------- 77.9- 68.7- 5.9-
2024-06-20 08:54 pm--------- 78.3- 68.7- 5.9-
2024-06-20 08:48 pm--------- 78.6- 69.1- 5.9-
2024-06-20 08:42 pm--------- 78.6- 69.1- 5.9-
2024-06-20 08:36 pm--------- 78.8- 69.1- 5.9-
2024-06-20 08:30 pm--------- 78.8- 69.1- 5.9-
2024-06-20 08:24 pm--------- 78.8- 69.1- 5.9-
2024-06-20 08:18 pm--------- 79.2- 69.3- 5.9-
2024-06-20 08:12 pm--------- 79.3- 69.3- 5.9-
2024-06-20 08:06 pm--------- 79.7- 69.6- 5.9-
2024-06-20 08:00 pm--------- 79.9- 69.6- 5.9-
2024-06-20 07:54 pm--------- 80.8- 70.2- 5.9-
2024-06-20 07:48 pm--------- 81.3- 70.3- 5.9-
2024-06-20 07:42 pm--------- 81.9- 70.5- 5.9-
2024-06-20 07:36 pm--------- 82.0- 70.5- 5.9-
2024-06-20 07:30 pm--------- 82.6- 70.7- 5.9-
2024-06-20 07:24 pm--------- 82.8- 70.9- 5.9-
2024-06-20 07:00 pm--------- 83.3- 70.9- 5.9-
2024-06-20 06:54 pm--------- 83.7- 71.1- 5.9-
2024-06-20 06:48 pm--------- 83.8- 71.2- 5.9-
2024-06-20 06:42 pm--------- 84.2- 71.4- 5.9-
2024-06-20 06:36 pm--------- 84.6- 71.6- 5.9-
2024-06-20 06:00 pm--------- 85.6- 72.0- 5.9-
2024-06-20 05:54 pm--------- 85.3- 72.0- 5.9-